Location: Newark
(40.9833°N, 0.0333°W)
Time: 02:30:58
(UTC+00:00)

Transit 2A Rocket - Pass Details

Date: 02 November 2020
Orbit: 588 x 914 km, 66.7° (Epoch: 26 November)

Event Time Altitude Azimuth Distance (km) Brightness Sun altitude
Rises 17:38:42 0° 326° (NW) 3,229 8.5 -8.9°
Reaches altitude 10° 17:41:14 10° 322° (NW) 2,245 7.8 -9.4°
Maximum altitude 17:46:11 56° 246° (WSW) 818 5.6 -10.3°
Drops below altitude 10° 17:50:42 10° 168° (SSE) 2,037 7.2 -11.1°
Sets 17:52:54 0° 164° (SSE) 2,903 7.9 -11.5°
